Sisseton, SD

8:33 AM CST on February 12, 2016 (GMT -0600)
Sisseton

Weather History for K8D3 - August, 2012

Change the Weather History Date:

Monday, August 13, 2012

  Actual Average Record
Temperature  
Mean Temperature 66 °F 70 °F  
Max Temperature 77 °F 82 °F 104 °F (1965)
Min Temperature 54 °F 58 °F 39 °F (1964)
Degree Days  
Heating Degree Days 0 1  
Month to date heating degree days 13 4  
Since 1 June heating degree days 40 79  
Since 1 July heating degree days 13 17  
Cooling Degree Days 1 6  
Month to date cooling degree days 47 80  
Year to date cooling degree days 600 402  
Since 1 June cooling degree days 542 379  
Growing Degree Days 15 (Base 50)    
Moisture  
Dew Point 56 °F    
Average Humidity 70    
Maximum Humidity 93    
Minimum Humidity 46    
Precipitation  
Precipitation 0.00 in 0.06 in 1.75 in (1989)
Month to date precipitation 0.83 1.14  
Year to date precipitation 14.04 15.44  
Sea Level Pressure  
Sea Level Pressure 30.01 in    
Wind  
Wind Speed 6 mph (NNW)    
Max Wind Speed 14 mph    
Max Gust Speed 17 mph    
T = Trace of Precipitation, MM = Missing Value Source: NWS Daily Summary

Daily Weather History Graph

Daily Weather History Graph

Search for Another Location

Airport or City:

Trip Planner

Search our weather history database for the weather conditions in past years. The results will help you decide how hot, cold, wet, or windy it might be!

Date:

Astronomy

Aug. 13, 2012 Rise Set
Actual Time 6:26 AM CDT 8:38 PM CDT
Civil Twilight 5:53 AM CDT 9:10 PM CDT
Nautical Twilight 5:13 AM CDT 9:50 PM CDT
Astronomical Twilight 4:28 AM CDT 10:35 PM CDT
Moon 2:24 AM CDT (8/13) 5:56 PM CDT (8/13)
Length of Visible Light 15h 16m
Length of Day
14h 11m
Waning Crescent, 16% of the Moon is Illuminated
Aug 13
Waning Crescent
Aug 17
New
Aug 24
First Quarter
Aug 31
Full
Sep 8
Last Quarter

Hourly Weather History & Observations

Time (CDT) Temp. Dew Point Humidity Pressure Visibility Wind Dir Wind Speed Gust Speed Precip Events Conditions
12:56 AM 61.0 °F 57.0 °F 87% 30.03 in - West 8.1 mph - N/A   Unknown
1:56 AM 60.1 °F 55.9 °F 86% 30.02 in - West 6.9 mph - N/A   Unknown
2:56 AM 61.0 °F 55.9 °F 83% 30.02 in - Calm Calm - N/A   Unknown
3:56 AM 61.0 °F 55.0 °F 81% 30.02 in - WNW 9.2 mph - N/A   Unknown
4:56 AM 61.0 °F 55.9 °F 83% 30.03 in - WNW 10.4 mph - N/A   Unknown
5:56 AM 60.1 °F 55.9 °F 86% 30.02 in - WNW 9.2 mph - N/A   Unknown
6:56 AM 57.0 °F 55.0 °F 93% 30.04 in - NW 5.8 mph - N/A   Unknown
7:56 AM 62.1 °F 57.9 °F 86% 30.04 in - NNW 3.5 mph - N/A   Unknown
8:56 AM 64.9 °F 59.0 °F 81% 30.05 in - North 11.5 mph - N/A   Unknown
9:56 AM 66.9 °F 61.0 °F 81% 30.05 in - North 9.2 mph - N/A   Unknown
10:56 AM 69.1 °F 61.0 °F 75% 30.05 in - North 10.4 mph - N/A   Unknown
11:56 AM 72.0 °F 59.0 °F 64% 30.04 in - NNW 10.4 mph - N/A   Unknown
12:56 PM 73.9 °F 59.0 °F 59% 30.02 in - North 5.8 mph - N/A   Unknown
1:56 PM 75.0 °F 55.9 °F 51% 30.01 in - North 9.2 mph - N/A   Unknown
2:56 PM 75.9 °F 55.0 °F 48% 30.01 in - North 8.1 mph - N/A   Unknown
3:56 PM 75.9 °F 53.1 °F 45% 29.99 in - North 6.9 mph - N/A   Unknown
4:56 PM 75.9 °F 54.0 °F 46% 29.99 in - NNE 9.2 mph - N/A   Unknown
5:56 PM 73.9 °F 54.0 °F 50% 29.99 in - NE 10.4 mph - N/A   Unknown
6:56 PM 72.0 °F 55.0 °F 55% 29.98 in - NE 5.8 mph - N/A   Unknown
7:56 PM 71.1 °F 59.0 °F 66% 29.97 in - Calm Calm - N/A   Unknown
8:56 PM 63.0 °F 55.9 °F 78% 29.98 in - Calm Calm - N/A   Unknown
9:56 PM 57.0 °F 55.9 °F 96% 29.99 in - Calm Calm - N/A   Unknown
10:56 PM 55.9 °F 54.0 °F 93% 29.99 in - Calm Calm - N/A   Unknown
11:56 PM 55.9 °F 53.1 °F 90% 29.99 in - Calm Calm - N/A   Unknown